Date String (YYYY-MM-DD hh:mm:ss) UTC,Instrument flags,Ambient pressure (hPa),Sample flow (lpm),Bypass flow (lpm),Sample temperature (°C),Ambient temperature (°C),ASC tube jacket temperature (°C),LED temperature (°C),Box temperature (°C),Sample RH (%),Span deviation,Mass concentration (μg/m³),Mass concentration (μg/m³),Mass concentration (μg/m³)
DateTimeUTC,F1_M11,P_M11,Q1_M11,Q2_M11,T1_M11,T2_M11,T3_M11,T4_M11,T5_M11,U1_M11,ZSPAN_M11,X0_M11,X2_M11,X1_M11
2021-09-27 11:00:00,,0826.2,5.01,0.00,30.3,29.2,00.0,39.4,32.0,10.0,0001.4,0013.49,0006.06,0005.08
2021-09-27 11:01:00,,0826.2,5.00,0.00,30.3,29.2,00.0,39.4,32.0,10.0,0002.0,0013.22,0006.04,0005.09
2021-09-27 11:02:00,,0826.2,4.99,0.00,30.3,29.2,00.0,39.4,32.0,10.0,0002.5,0013.26,0006.03,0005.08
2021-09-27 11:03:00,,0826.2,5.01,0.00,30.3,29.3,00.0,39.4,32.0,10.1,0001.8,0012.72,0005.98,0005.05
2021-09-27 11:04:00,,0826.2,4.99,0.00,30.4,29.3,00.0,39.4,32.0,10.1,0002.0,0012.78,0005.97,0005.05
2021-09-27 11:05:00,,0826.2,5.01,0.00,30.4,29.3,00.0,39.5,32.1,10.1,0001.6,0012.64,0005.96,0005.06
2021-09-27 11:06:00,,0826.2,5.00,0.00,30.4,29.3,00.0,39.5,32.0,10.1,0002.1,0012.61,0005.93,0005.06
2021-09-27 11:07:00,,0826.2,5.00,0.00,30.4,29.3,00.0,39.5,32.0,10.0,0002.2,0012.90,0005.93,0005.06
2021-09-27 11:08:00,,0826.2,5.01,0.00,30.4,29.3,00.0,39.5,32.1,10.0,0002.1,0012.88,0005.90,0005.06
2021-09-27 11:09:00,,0826.2,5.00,0.00,30.4,29.4,00.0,39.5,32.1,10.0,0002.1,0012.86,0005.88,0005.06
2021-09-27 11:10:00,,0826.2,5.00,0.00,30.4,29.1,00.0,39.5,32.0,10.1,0002.6,0012.12,0005.88,0005.06
2021-09-27 11:11:00,,0826.1,4.99,0.00,30.3,27.2,00.0,39.4,31.6,10.1,0002.6,0012.19,0005.91,0005.07
2021-09-27 11:12:00,,0826.1,5.00,0.00,30.1,26.4,00.0,39.4,31.3,10.2,0002.2,0012.05,0005.92,0005.07
2021-09-27 11:13:00,,0826.1,5.00,0.00,30.0,26.6,00.0,39.4,31.3,10.3,0002.0,0011.95,0005.93,0005.08
2021-09-27 11:14:00,,0826.1,5.01,0.00,29.9,27.0,00.0,39.3,31.3,10.3,0002.3,0012.01,0005.93,0005.09
2021-09-27 11:15:00,,0826.1,5.01,0.00,29.9,27.4,00.0,39.2,31.3,10.4,0002.3,0011.91,0005.90,0005.08
2021-09-27 11:16:00,,0826.1,4.99,0.00,29.8,27.6,00.0,39.2,31.4,10.3,0002.6,0011.83,0005.93,0005.08
2021-09-27 11:17:00,,0826.1,5.01,0.00,29.8,27.9,00.0,39.2,31.4,10.3,0002.8,0011.77,0005.96,0005.07
2021-09-27 11:18:00,,0826.1,4.99,0.00,29.8,28.1,00.0,39.1,31.5,10.3,0002.9,0011.57,0005.99,0005.08
2021-09-27 11:19:00,,0826.1,5.01,0.00,29.9,28.2,00.0,39.1,31.5,10.3,0002.9,0011.53,0006.00,0005.08
2021-09-27 11:20:00,,0826.1,4.99,0.00,29.9,28.4,00.0,39.1,31.5,10.3,0002.9,0011.43,0005.99,0005.08
2021-09-27 11:21:00,,0826.1,4.99,0.00,29.9,28.5,00.0,39.1,31.6,10.3,0002.6,0011.06,0006.00,0005.07
2021-09-27 11:22:00,,0826.1,5.01,0.00,29.9,28.6,00.0,39.1,31.6,10.3,0002.3,0011.77,0005.99,0005.07
2021-09-27 11:23:00,,0826.1,4.98,0.00,29.9,28.6,00.0,39.1,31.6,10.3,0002.2,0012.29,0006.01,0005.06
2021-09-27 11:24:00,,0826.1,5.00,0.00,29.9,28.7,00.0,39.1,31.6,10.3,0001.9,0012.82,0006.04,0005.06
2021-09-27 11:25:00,,0826.1,5.02,0.00,29.9,28.7,00.0,39.1,31.6,10.3,0001.9,0013.36,0006.03,0005.05
2021-09-27 11:26:00,,0826.1,4.99,0.00,29.9,28.8,00.0,39.1,31.6,10.3,0001.6,0013.49,0006.08,0005.07
2021-09-27 11:27:00,,0826.0,5.00,0.00,29.9,28.8,00.0,39.1,31.6,10.3,0001.2,0013.33,0006.06,0005.07
2021-09-27 11:28:00,,0826.1,5.00,0.00,30.0,28.8,00.0,39.1,31.7,10.3,0001.0,0013.46,0006.08,0005.08
2021-09-27 11:29:00,,0826.2,5.01,0.00,30.0,28.8,00.0,39.1,31.7,10.3,0000.4,0014.23,0006.07,0005.09
2021-09-27 11:30:00,,0826.1,4.99,0.00,30.0,28.8,00.0,39.1,31.7,10.2,-000.2,0014.35,0006.11,0005.09
2021-09-27 11:31:00,,0826.2,5.00,0.00,30.0,28.8,00.0,39.1,31.7,10.2,0000.2,0014.33,0006.10,0005.08
2021-09-27 11:32:00,,0826.2,5.00,0.00,30.0,28.8,00.0,39.1,31.7,10.2,0000.9,0013.99,0006.07,0005.07
2021-09-27 11:33:00,,0826.2,5.00,0.00,30.0,28.9,00.0,39.1,31.8,10.2,0001.0,0013.53,0006.05,0005.06
2021-09-27 11:34:00,,0826.2,5.00,0.00,30.0,28.9,00.0,39.1,31.7,10.2,0001.2,0013.51,0006.01,0005.07
2021-09-27 11:35:00,,0826.2,5.01,0.00,30.1,28.9,00.0,39.1,31.7,10.2,0001.8,0013.53,0006.00,0005.07
2021-09-27 11:36:00,,0826.2,4.99,0.00,30.1,28.9,00.0,39.1,31.7,10.2,0002.4,0013.48,0006.01,0005.08
2021-09-27 11:37:00,,0826.2,5.00,0.00,30.1,28.9,00.0,39.2,31.7,10.2,0002.9,0013.81,0005.99,0005.06
2021-09-27 11:38:00,,0826.2,5.01,0.00,30.1,28.9,00.0,39.2,31.8,10.2,0002.8,0013.95,0005.97,0005.04
2021-09-27 11:39:00,,0826.2,4.99,0.00,30.1,29.0,00.0,39.2,31.8,10.1,0002.8,0013.82,0005.94,0005.02
2021-09-27 11:40:00,,0826.2,5.02,0.00,30.1,29.0,00.0,39.2,31.9,10.1,0003.2,0013.07,0005.89,0005.01
2021-09-27 11:41:00,,0826.2,4.99,0.00,30.1,29.0,00.0,39.2,31.9,10.1,0003.4,0012.99,0005.85,0005.01
2021-09-27 11:42:00,,0826.2,4.99,0.00,30.1,29.0,00.0,39.2,31.9,10.1,0003.3,0013.01,0005.86,0005.01
2021-09-27 11:43:00,,0826.2,5.00,0.00,30.1,29.0,00.0,39.2,31.9,10.1,0003.0,0013.07,0005.87,0005.01
2021-09-27 11:44:00,,0826.1,5.01,0.00,30.1,29.0,00.0,39.2,31.9,10.1,0003.2,0012.81,0005.89,0005.01
2021-09-27 11:45:00,,0826.2,5.00,0.00,30.1,29.0,00.0,39.2,31.9,10.1,0003.3,0012.40,0005.85,0004.99
2021-09-27 11:46:00,,0826.1,5.00,0.00,30.1,29.0,00.0,39.2,31.8,10.1,0003.4,0012.34,0005.86,0004.98
2021-09-27 11:47:00,,0826.2,4.99,0.00,30.2,29.0,00.0,39.3,31.9,10.1,0003.1,0012.28,0005.84,0004.97
2021-09-27 11:48:00,,0826.1,5.00,0.00,30.2,29.0,00.0,39.3,31.9,10.1,0002.9,0012.36,0005.86,0004.97
2021-09-27 11:49:00,,0826.2,5.01,0.00,30.2,29.1,00.0,39.3,31.9,10.0,0002.6,0013.03,0005.90,0004.98
2021-09-27 11:50:00,,0826.1,4.99,0.00,30.2,29.1,00.0,39.3,32.0,10.0,0002.6,0013.24,0005.91,0004.99
2021-09-27 11:51:00,,0826.1,5.00,0.00,30.2,29.2,00.0,39.3,31.9,10.0,0002.1,0013.53,0005.91,0004.98
2021-09-27 11:52:00,,0826.1,5.01,0.00,30.2,29.1,00.0,39.3,31.9,10.1,0002.0,0013.70,0005.92,0004.97
2021-09-27 11:53:00,,0826.2,4.99,0.00,30.2,29.1,00.0,39.3,31.9,10.0,0001.8,0013.75,0005.95,0004.98
2021-09-27 11:54:00,,0826.1,5.02,0.00,30.2,29.1,00.0,39.3,31.9,10.0,0002.1,0013.66,0005.93,0004.98
2021-09-27 11:55:00,,0826.2,5.00,0.00,30.2,29.1,00.0,39.3,31.9,10.0,0001.4,0013.71,0005.90,0004.98
2021-09-27 11:56:00,,0826.2,5.00,0.00,30.2,29.1,00.0,39.3,31.9,10.0,0000.7,0014.21,0005.88,0004.99
2021-09-27 11:57:00,,0826.2,5.01,0.00,30.2,29.1,00.0,39.3,31.9,10.0,0000.8,0014.10,0005.88,0005.00
2021-09-27 11:58:00,,0826.1,5.00,0.00,30.2,29.1,00.0,39.3,31.9,10.0,0000.8,0013.67,0005.88,0005.00
2021-09-27 11:59:00,,0826.2,5.00,0.00,30.2,29.1,00.0,39.3,31.9,10.0,0000.4,0013.42,0005.87,0004.98
